Location: Bronnegerveen
(52.9548°N, 6.8388°E)
Time: 02:23:48
(UTC+00:00)

Cosmos 1025 Rocket - Pass Details

Date: 15 June 2025
Orbit: 588 x 610 km, 82.5° (Epoch: 07 July)

Event Time Altitude Azimuth Distance (km) Brightness Sun altitude
Exits shadow 00:37:03 12° 155° (SSE) 1,815 5.0 -12.5°
Maximum altitude 00:40:37 34° 91° (E) 975 4.2 -12.3°
Drops below altitude 10° 00:44:29 10° 26° (NNE) 1,936 7.1 -12.2°
Sets 00:46:50 0° 18° (NNE) 2,845 8.7 -12.1°
